Flag Weather past 2 weeks in Eisenhüttenstadt, Brandenburg, Germany

Now
36 °F

Fog.


Feels Like: 34 °F
Forecast: 32 / 39 °F
Wind: 3 mph from Southeast

Location: Lindenberg

Current Time: Nov 26, 2014 at 11:08:07 PM

Latest Report: Nov 26, 2014 at 10:00 PM


Visibility: 2 mi

Pressure: 30.17 "Hg

Humidity: 96%

Dew point: 35 °F

Location of EisenhüttenstadtLocation

Historic Weather in Eisenhüttenstadt — Graph

°F

Eisenhüttenstadt temperature yesterday

Maximum temperature yesterday: 39 °F (at 9:00 AM)
Minimum temperature yesterday: 36 °F (at 3:00 AM)
Average temperature yesterday: 38 °F

Past Weeks' High & Low Weather Summary

 TemperatureHumidityPressure
High52 °F (Nov 15, 7:00 PM)100% (Nov 12, 12:00 AM)30.36 "Hg (Nov 12, 12:00 AM)
Low35 °F (Nov 23, 7:00 AM)76% (Nov 17, 2:00 PM)29.59 "Hg (Nov 16, 12:00 PM)
Average43 °F94%30.05 "Hg
* Reported Nov 11 9:00 PM — Nov 26 9:00 PM, Eisenhüttenstadt, Weather by CustomWeather, © 2014

Note: Actual official high and low records may vary slightly from our data, if they occured in-between our weather recording intervals... More about our weather records

Advertising

Eisenhüttenstadt weather history for previous 24 hours

 ConditionsComfort  
Time TempWeatherWind HumidityBarometerVisibility
9:00 PM
Nov 26
38 °FFog.3 mph98%30.17 "Hg1 mi
8:00 PM37 °FFog.5 mph98%30.17 "Hg1 mi
7:00 PM37 °FFog.5 mph97%30.18 "Hg2 mi
6:00 PM36 °FFog.3 mph97%30.19 "Hg3 mi
5:00 PM38 °FOvercast.3 mph93%30.20 "Hg5 mi
3:00 PM41 °FPartly sunny.3 mph87%30.21 "Hg6 mi
2:00 PM41 °FOvercast.3 mph89%30.22 "Hg7 mi
1:00 PM40 °FOvercast.3 mph93%30.24 "Hg6 mi
12:00 PM40 °FOvercast.3 mph92%30.26 "Hg6 mi
11:00 AM40 °FLow clouds.3 mph93%30.27 "Hg6 mi
9:00 AM38 °FFog.3 mph97%30.28 "Hg2 mi
8:00 AM38 °FFog.2 mph99%30.28 "Hg2 mi
7:00 AM38 °FFog.3 mph99%30.27 "Hg2 mi
6:00 AM38 °FFog.2 mph99%30.28 "Hg2 mi
5:00 AM38 °FFog.3 mph99%30.29 "Hg1 mi
3:00 AM38 °FFog.2 mph100%30.31 "Hg2 mi
2:00 AM38 °FFog.2 mph100%30.31 "Hg1 mi
1:00 AM38 °FFog.2 mph100%30.32 "Hg1 mi
12:00 AM38 °FFog.1 mph100%30.34 "Hg1 mi
11:00 PM
Nov 25
38 °FFog.1 mph100%30.34 "Hg1 mi
Weather by CustomWeather, © 2014

See weather overviewHow to use our weather pages